Flag for Brazil Weather past 2 weeks in São Paulo, São Paulo, Brazil

Now
81 °F

Sunny.


Feels Like: 80 °F
Forecast: 55 / 83 °F
Wind: 13 mph from South

Location: Sao Paulo Airport

Current Time: Aug 22, 2014 at 4:43:49 PM

Latest Report: Aug 22, 2014 at 4:00 PM


Visibility: 10 mi

Pressure: 30.09 "Hg

Humidity: 34%

Dew point: 50 °F

Location of São PauloLocation

Historic Weather in São Paulo — Graph

°F

São Paulo temperature yesterday

Maximum temperature yesterday: 82 °F (at 3:00 PM)
Minimum temperature yesterday: 59 °F (at 1:00 AM)
Average temperature yesterday: 68 °F

Past Weeks' High & Low Weather Summary

 TemperatureHumidityPressure
High84 °F (Aug 12, 2:00 PM)88% (Aug 8, 10:00 PM)30.42 "Hg (Aug 8, 10:00 PM)
Low48 °F (Aug 14, 12:00 AM)20% (Aug 7, 4:00 PM)30.04 "Hg (Aug 13, 2:00 AM)
Average64 °F67%30.25 "Hg
* Reported Aug 7 4:00 PM — Aug 22 4:00 PM, São Paulo, Weather by CustomWeather, © 2014

Note: Actual official high and low records may vary slightly from our data, if they occured in-between our weather recording intervals... More about our weather records

Advertising

São Paulo weather history for previous 24 hours

 ConditionsComfort  
Time TempWeatherWind HumidityBarometerVisibility
4:00 PM
Aug 22
81 °FSunny.13 mph34%30.09 "Hg10 mi
3:00 PM84 °FSunny.6 mph25%30.09 "Hg10 mi
2:00 PM84 °FSunny.5 mph25%30.12 "Hg10 mi
1:00 PM81 °FSunny.9 mph28%30.15 "Hg10 mi
12:00 PM81 °FSunny.9 mph26%30.18 "Hg10 mi
11:00 AM77 °FSunny.8 mph34%30.21 "Hg10 mi
10:00 AM73 °FSunny.5 mph41%30.21 "Hg10 mi
9:00 AM70 °FSunny.3 mph46%30.21 "Hg10 mi
8:00 AM64 °FClear.5 mph60%30.21 "Hg6 mi
7:00 AM61 °FClear.3 mph63%30.18 "Hg5 mi
6:00 AM61 °FClear.No wind68%30.18 "Hg4 mi
5:00 AM63 °FClear.2 mph64%30.15 "Hg10 mi
4:00 AM63 °FClear.2 mph64%30.18 "Hg10 mi
3:00 AM63 °FClear.No wind64%30.18 "Hg6 mi
2:00 AM64 °FClear.No wind60%30.18 "Hg10 mi
1:00 AM64 °FClear.No wind56%30.21 "Hg10 mi
12:00 AM68 °FClear.2 mph49%30.21 "Hg10 mi
11:00 PM
Aug 21
70 °FClear.2 mph46%30.21 "Hg10 mi
10:00 PM68 °FClear.3 mph53%30.21 "Hg10 mi
9:00 PM68 °FClear.5 mph53%30.21 "Hg10 mi
8:00 PM68 °FClear.5 mph56%30.18 "Hg10 mi
7:00 PM70 °FClear.9 mph50%30.18 "Hg10 mi
6:00 PM73 °FClear.12 mph44%30.15 "Hg10 mi
5:00 PM81 °FPassing clouds.6 mph28%30.15 "HgN/A
4:00 PM82 °FSunny.3 mph26%30.15 "Hg10 mi
Weather by CustomWeather, © 2014

See weather overviewHow to use our weather pages